TimeMDT,TemperatureF,Dew PointF,Humidity,Sea Level PressureIn,VisibilityMPH,Wind Direction,Wind SpeedMPH,Gust SpeedMPH,PrecipitationIn,Events,Conditions,WindDirDegrees,DateUTC
12:56 AM,46.9,32.9,58,29.86,10.0,Calm,Calm,-,N/A,,Clear,0,2013-06-18 06:56:00
1:56 AM,48.9,32.9,54,29.83,10.0,Calm,Calm,-,N/A,,Clear,0,2013-06-18 07:56:00
2:56 AM,46.9,34.0,61,29.83,10.0,Calm,Calm,-,N/A,,Clear,0,2013-06-18 08:56:00
3:56 AM,43.0,32.0,65,29.82,10.0,East,3.5,-,N/A,,Clear,90,2013-06-18 09:56:00
4:56 AM,45.0,34.0,65,29.82,10.0,SE,3.5,-,N/A,,Clear,140,2013-06-18 10:56:00
5:56 AM,43.9,32.9,65,29.84,10.0,ENE,4.6,-,N/A,,Clear,60,2013-06-18 11:56:00
6:56 AM,54.0,37.9,55,29.80,10.0,East,4.6,-,N/A,,Clear,80,2013-06-18 12:56:00
7:56 AM,61.9,34.9,36,29.78,10.0,Calm,Calm,-,N/A,,Clear,0,2013-06-18 13:56:00
8:56 AM,68.9,41.0,36,29.78,10.0,West,3.5,-,N/A,,Clear,280,2013-06-18 14:56:00
9:56 AM,75.9,36.9,24,29.78,10.0,SSE,4.6,-,N/A,,Clear,160,2013-06-18 15:56:00
10:56 AM,79.0,32.0,18,29.75,10.0,South,9.2,-,N/A,,Clear,180,2013-06-18 16:56:00
11:56 AM,81.0,34.0,18,29.74,10.0,South,13.8,17.3,N/A,,Clear,180,2013-06-18 17:56:00
12:56 PM,81.0,29.1,15,29.74,10.0,South,9.2,16.1,N/A,,Clear,170,2013-06-18 18:56:00
1:56 PM,82.9,19.0,9,29.70,10.0,South,13.8,18.4,N/A,,Partly Cloudy,190,2013-06-18 19:56:00
2:03 PM,82.4,24.8,12,29.96,10.0,South,6.9,-,N/A,,Partly Cloudy,170,2013-06-18 20:03:00
2:26 PM,84.2,21.2,10,29.96,10.0,SSW,9.2,-,N/A,Thunderstorm,Scattered Clouds,200,2013-06-18 20:26:00
2:43 PM,82.4,21.2,10,29.95,10.0,WSW,17.3,26.5,N/A,,Mostly Cloudy,250,2013-06-18 20:43:00
2:56 PM,81.0,18.1,10,29.70,10.0,West,12.7,29.9,N/A,,Scattered Clouds,270,2013-06-18 20:56:00
3:33 PM,75.2,26.6,17,29.95,10.0,NE,18.4,38.0,N/A,,Mostly Cloudy,50,2013-06-18 21:33:00
3:48 PM,73.4,35.6,25,29.97,10.0,SSE,17.3,28.8,N/A,Thunderstorm,Scattered Clouds,150,2013-06-18 21:48:00
3:56 PM,73.9,32.9,22,29.73,10.0,ESE,16.1,23.0,N/A,Thunderstorm,Partly Cloudy,120,2013-06-18 21:56:00
4:08 PM,75.2,37.4,25,29.95,10.0,SE,13.8,19.6,N/A,,Clear,140,2013-06-18 22:08:00
4:56 PM,81.9,36.9,20,29.67,10.0,SE,15.0,19.6,N/A,,Clear,130,2013-06-18 22:56:00
5:56 PM,77.0,34.0,21,29.67,10.0,NNW,15.0,19.6,N/A,,Partly Cloudy,330,2013-06-18 23:56:00
6:56 PM,75.9,38.8,26,29.62,10.0,NNE,11.5,-,N/A,,Clear,30,2013-06-19 00:56:00
7:56 PM,75.9,41.9,30,29.58,10.0,North,4.6,-,N/A,,Clear,10,2013-06-19 01:56:00
8:56 PM,61.9,46.9,58,29.60,10.0,South,5.8,-,N/A,,Clear,170,2013-06-19 02:56:00
9:56 PM,59.9,43.9,55,29.59,10.0,ESE,3.5,-,N/A,,Clear,120,2013-06-19 03:56:00
10:56 PM,61.9,38.8,43,29.55,10.0,Variable,3.5,-,N/A,,Clear,0,2013-06-19 04:56:00
11:56 PM,59.9,34.9,39,29.53,10.0,Variable,3.5,-,N/A,,Clear,0,2013-06-19 05:56:00